QPF
0.06 0.06 0.05 0.05 0.05 0.05 0.04 0.03 0.03 0.03 0.02 0.02 0.02 0.02 0.02 0.01 0.01 0.01 0.00 0.01 0.00 0.00 0.00 0.00 0.00 0.00 0.00 0.00 0.00 0.00 0.00 0.00 0.00 0.00 0.00 0.00 0.00 0.00
0.04 0.04 0.04 0.04 0.04 0.04 0.03 0.02 0.02 0.01 0.01 0.01 0.01 0.01 0.02 0.02 0.02 0.01 0.01 0.01 0.00 0.00 0.00 0.00 0.00 0.00 0.00 0.00 0.00 0.00 0.00 0.00 0.00 0.00 0.00 0.00 0.00 0.01
0.03 0.02 0.02 0.03 0.03 0.04 0.03 0.02 0.01 0.01 0.01 0.01 0.01 0.01 0.01 0.02 0.02 0.01 0.01 0.01 0.00 0.00 0.00 0.00 0.00 0.00 0.00 0.00 0.00 0.00 0.00 0.00 0.00 0.00 0.00 0.00 0.00 0.01
0.03 0.02 0.02 0.02 0.03 0.03 0.04 0.03 0.02 0.01 0.01 0.01 0.01 0.01 0.02 0.02 0.02 0.02 0.01 0.01 0.00 0.00 0.00 0.00 0.00 0.00 0.00 0.00 0.00 0.00 0.00 0.00 0.00 0.00 0.00 0.00 0.00 0.01
0.03 0.03 0.02 0.02 0.02 0.03 0.04 0.04 0.03 0.02 0.01 0.01 0.02 0.02 0.02 0.03 0.03 0.03 0.02 0.01 0.01 0.01 0.01 0.01 0.00 0.00 0.00 0.00 0.00 0.00 0.00 0.00 0.00 0.00 0.00 0.01 0.01 0.01
0.03 0.03 0.02 0.01 0.01 0.02 0.03 0.03 0.03 0.01 0.01 0.01 0.01 0.01 0.02 0.02 0.03 0.03 0.03 0.02 0.02 0.01 0.01 0.01 0.01 0.00 0.00 0.00 0.00 0.00 0.00 0.00 0.00 0.00 0.00 0.01 0.01 0.01
0.03 0.03 0.03 0.03 0.02 0.01 0.02 0.02 0.02 0.02 0.01 0.01 0.01 0.01 0.01 0.01 0.01 0.01 0.02 0.03 0.02 0.02 0.01 0.01 0.01 0.01 0.00 0.00 0.00 0.00 0.00 0.00 0.00 0.00 0.00 0.01 0.01 0.01
0.03 0.03 0.03 0.03 0.03 0.02 0.02 0.02 0.02 0.01 0.01 0.01 0.01 0.01 0.01 0.01 0.01 0.01 0.01 0.01 0.01 0.01 0.01 0.01 0.01 0.01 0.01 0.00 0.00 0.00 0.00 0.00 0.00 0.00 0.00 0.00 0.00 0.00
0.02 0.03 0.03 0.03 0.03 0.02 0.02 0.02 0.02 0.01 0.01 0.01 0.01 0.01 0.01 0.01 0.01 0.01 0.01 0.01 0.00 0.01 0.01 0.01 0.01 0.01 0.01 0.01 0.01 0.00 0.00 0.00 0.00 0.00 0.00 0.00 0.00 0.00
0.02 0.02 0.03 0.03 0.02 0.02 0.02 0.01 0.02 0.01 0.01 0.01 0.01 0.01 0.01 0.01 0.01 0.01 0.01 0.01 0.01 0.01 0.01 0.01 0.01 0.01 0.01 0.01 0.01 0.01 0.01 0.00 0.00 0.00 0.00 0.00 0.00 0.00
0.02 0.02 0.02 0.02 0.03 0.02 0.02 0.02 0.01 0.01 0.01 0.01 0.01 0.01 0.01 0.01 0.01 0.01 0.02 0.02 0.01 0.01 0.01 0.01 0.01 0.01 0.01 0.01 0.01 0.01 0.01 0.01 0.01 0.01 0.01 0.01 0.01 0.01
0.02 0.02 0.02 0.02 0.02 0.02 0.01 0.01 0.01 0.01 0.01 0.01 0.01 0.01 0.01 0.01 0.01 0.01 0.01 0.01 0.01 0.01 0.00 0.01 0.01 0.01 0.02 0.01 0.01 0.01 0.01 0.01 0.00 0.01 0.01 0.01 0.01 0.01
0.02 0.02 0.02 0.02 0.02 0.02 0.02 0.01 0.01 0.01 0.01 0.00 0.00 0.00 0.00 0.00 0.00 0.00 0.00 0.01 0.01 0.02 0.01 0.01 0.02 0.02 0.02 0.02 0.01 0.01 0.01 0.01 0.01 0.01 0.00 0.00 0.00 0.01
0.01 0.01 0.01 0.02 0.02 0.02 0.02 0.01 0.01 0.01 0.00 0.00 0.00 0.00 0.00 0.00 0.00 0.00 0.00 0.00 0.01 0.01 0.01 0.02 0.02 0.03 0.03 0.02 0.01 0.01 0.01 0.01 0.01 0.01 0.01 0.01 0.01 0.01
0.01 0.01 0.01 0.02 0.02 0.02 0.01 0.01 0.01 0.01 0.01 0.00 0.00 0.00 0.00 0.00 0.00 0.00 0.00 0.00 0.01 0.01 0.01 0.01 0.02 0.02 0.03 0.03 0.02 0.01 0.01 0.01 0.01 0.01 0.01 0.01 0.01 0.01
0.01 0.02 0.02 0.02 0.02 0.02 0.01 0.01 0.01 0.01 0.01 0.01 0.01 0.01 0.01 0.01 0.01 0.01 0.01 0.01 0.01 0.01 0.01 0.01 0.01 0.02 0.03 0.02 0.02 0.02 0.01 0.01 0.01 0.01 0.01 0.01 0.01 0.01
0.02 0.02 0.02 0.02 0.02 0.02 0.02 0.01 0.01 0.01 0.01 0.00 0.01 0.01 0.00 0.01 0.01 0.00 0.01 0.01 0.01 0.01 0.00 0.01 0.01 0.01 0.02 0.02 0.02 0.02 0.01 0.01 0.01 0.01 0.01 0.01 0.01 0.00
0.02 0.02 0.02 0.02 0.02 0.02 0.02 0.01 0.01 0.01 0.01 0.01 0.01 0.00 0.00 0.00 0.00 0.00 0.00 0.01 0.01 0.00 0.00 0.00 0.01 0.01 0.01 0.01 0.01 0.01 0.01 0.01 0.01 0.01 0.01 0.01 0.01 0.00
0.01 0.01 0.01 0.01 0.02 0.02 0.01 0.01 0.01 0.01 0.01 0.01 0.01 0.01 0.01 0.01 0.01 0.01 0.01 0.01 0.01 0.01 0.00 0.01 0.01 0.03 0.03 0.02 0.01 0.01 0.01 0.01 0.01 0.01 0.01 0.01 0.01 0.00
0.01 0.01 0.01 0.01 0.02 0.02 0.02 0.02 0.02 0.01 0.01 0.01 0.01 0.01 0.01 0.01 0.01 0.01 0.01 0.01 0.01 0.02 0.01 0.01 0.01 0.02 0.03 0.03 0.02 0.01 0.01 0.01 0.02 0.02 0.01 0.01 0.01 0.01
0.02 0.02 0.02 0.02 0.02 0.02 0.02 0.02 0.02 0.01 0.01 0.01 0.01 0.01 0.01 0.01 0.01 0.01 0.01 0.02 0.02 0.02 0.02 0.01 0.01 0.01 0.02 0.04 0.04 0.02 0.01 0.01 0.01 0.02 0.02 0.02 0.02 0.01
0.03 0.03 0.03 0.02 0.02 0.02 0.02 0.02 0.02 0.02 0.02 0.01 0.01 0.01 0.02 0.02 0.02 0.02 0.02 0.02 0.02 0.02 0.02 0.01 0.01 0.01 0.02 0.04 0.03 0.01 0.01 0.01 0.01 0.01 0.02 0.02 0.03 0.02
0.02 0.02 0.03 0.03 0.03 0.03 0.02 0.02 0.02 0.02 0.02 0.02 0.02 0.02 0.02 0.02 0.02 0.02 0.02 0.01 0.02 0.02 0.02 0.02 0.02 0.02 0.02 0.02 0.02 0.01 0.01 0.01 0.01 0.01 0.01 0.01 0.01 0.01
MSLP
1020.48 1020.75 1021.05 1021.37 1021.72 1022.10 1022.49 1022.90 1023.32 1023.75 1024.15 1024.54 1024.88 1025.15 1025.35 1025.47 1025.50 1025.46 1025.35 1025.21 1025.06 1024.92 1024.80 1024.72 1024.67 1024.63 1024.59 1024.52 1024.41 1024.25 1024.03 1023.76 1023.45 1023.11 1022.76 1022.41 1022.05 1021.70
1020.59 1020.86 1021.12 1021.41 1021.72 1022.06 1022.43 1022.83 1023.25 1023.68 1024.11 1024.52 1024.88 1025.17 1025.37 1025.49 1025.51 1025.45 1025.34 1025.19 1025.03 1024.89 1024.79 1024.72 1024.67 1024.64 1024.59 1024.51 1024.38 1024.19 1023.95 1023.66 1023.33 1022.98 1022.63 1022.28 1021.93 1021.59
1020.69 1020.95 1021.20 1021.46 1021.74 1022.06 1022.40 1022.79 1023.22 1023.66 1024.11 1024.53 1024.91 1025.21 1025.42 1025.53 1025.54 1025.47 1025.34 1025.18 1025.02 1024.88 1024.76 1024.69 1024.63 1024.58 1024.52 1024.41 1024.25 1024.04 1023.76 1023.45 1023.10 1022.75 1022.39 1022.05 1021.71 1021.38
1020.69 1020.97 1021.22 1021.48 1021.75 1022.05 1022.39 1022.78 1023.21 1023.67 1024.13 1024.57 1024.96 1025.27 1025.48 1025.58 1025.59 1025.50 1025.36 1025.19 1025.01 1024.85 1024.72 1024.62 1024.54 1024.46 1024.36 1024.22 1024.03 1023.78 1023.48 1023.15 1022.79 1022.43 1022.09 1021.75 1021.42 1021.09
1020.57 1020.87 1021.15 1021.41 1021.69 1022.00 1022.35 1022.75 1023.19 1023.67 1024.15 1024.60 1025.00 1025.31 1025.52 1025.62 1025.61 1025.52 1025.36 1025.17 1024.97 1024.79 1024.64 1024.51 1024.39 1024.27 1024.13 1023.95 1023.72 1023.44 1023.12 1022.78 1022.42 1022.06 1021.72 1021.39 1021.07 1020.76
1020.30 1020.64 1020.95 1021.25 1021.56 1021.89 1022.26 1022.68 1023.15 1023.63 1024.12 1024.58 1024.98 1025.29 1025.50 1025.59 1025.58 1025.47 1025.31 1025.10 1024.89 1024.68 1024.50 1024.33 1024.18 1024.01 1023.83 1023.61 1023.34 1023.04 1022.70 1022.35 1021.99 1021.65 1021.32 1021.00 1020.69 1020.37
1019.92 1020.31 1020.66 1021.00 1021.34 1021.71 1022.11 1022.56 1023.03 1023.53 1024.02 1024.48 1024.87 1025.17 1025.37 1025.46 1025.44 1025.33 1025.16 1024.95 1024.72 1024.50 1024.29 1024.09 1023.90 1023.69 1023.47 1023.21 1022.91 1022.59 1022.24 1021.89 1021.54 1021.20 1020.88 1020.57 1020.27 1019.95
1019.47 1019.90 1020.29 1020.68 1021.07 1021.47 1021.91 1022.37 1022.85 1023.35 1023.83 1024.27 1024.64 1024.93 1025.12 1025.20 1025.18 1025.07 1024.91 1024.70 1024.48 1024.25 1024.02 1023.79 1023.57 1023.33 1023.07 1022.78 1022.46 1022.12 1021.77 1021.42 1021.07 1020.74 1020.43 1020.12 1019.81 1019.48
1019.00 1019.46 1019.90 1020.33 1020.75 1021.19 1021.65 1022.12 1022.60 1023.08 1023.53 1023.95 1024.29 1024.56 1024.73 1024.80 1024.79 1024.70 1024.55 1024.36 1024.15 1023.92 1023.69 1023.46 1023.21 1022.95 1022.66 1022.35 1022.01 1021.66 1021.30 1020.94 1020.60 1020.27 1019.95 1019.63 1019.31 1018.97
1018.57 1019.05 1019.52 1019.98 1020.44 1020.90 1021.36 1021.83 1022.29 1022.74 1023.15 1023.53 1023.84 1024.07 1024.23 1024.31 1024.30 1024.23 1024.11 1023.95 1023.76 1023.56 1023.34 1023.10 1022.84 1022.57 1022.26 1021.93 1021.58 1021.22 1020.85 1020.48 1020.12 1019.78 1019.45 1019.12 1018.78 1018.41
1018.18 1018.68 1019.18 1019.67 1020.15 1020.62 1021.08 1021.52 1021.95 1022.36 1022.73 1023.05 1023.32 1023.53 1023.67 1023.75 1023.76 1023.72 1023.63 1023.51 1023.35 1023.17 1022.97 1022.74 1022.48 1022.20 1021.88 1021.54 1021.17 1020.79 1020.41 1020.03 1019.65 1019.29 1018.93 1018.57 1018.21 1017.82
1017.83 1018.36 1018.88 1019.39 1019.88 1020.35 1020.80 1021.22 1021.61 1021.97 1022.29 1022.57 1022.79 1022.98 1023.10 1023.18 1023.21 1023.20 1023.15 1023.06 1022.93 1022.78 1022.59 1022.37 1022.12 1021.83 1021.51 1021.15 1020.77 1020.38 1019.98 1019.58 1019.18 1018.79 1018.40 1018.01 1017.62 1017.21
1017.51 1018.07 1018.61 1019.14 1019.64 1020.11 1020.55 1020.95 1021.30 1021.61 1021.89 1022.12 1022.31 1022.47 1022.59 1022.67 1022.71 1022.72 1022.69 1022.63 1022.53 1022.39 1022.22 1022.00 1021.75 1021.45 1021.12 1020.75 1020.36 1019.95 1019.53 1019.11 1018.69 1018.27 1017.85 1017.43 1017.01 1016.58
1017.19 1017.77 1018.35 1018.90 1019.42 1019.89 1020.32 1020.70 1021.03 1021.31 1021.54 1021.75 1021.91 1022.05 1022.16 1022.24 1022.29 1022.31 1022.29 1022.24 1022.15 1022.01 1021.83 1021.61 1021.34 1021.03 1020.69 1020.31 1019.91 1019.49 1019.05 1018.62 1018.17 1017.73 1017.29 1016.84 1016.39 1015.95
1016.83 1017.46 1018.07 1018.65 1019.19 1019.68 1020.11 1020.48 1020.79 1021.06 1021.27 1021.46 1021.61 1021.74 1021.84 1021.91 1021.96 1021.98 1021.96 1021.90 1021.79 1021.63 1021.43 1021.19 1020.89 1020.57 1020.20 1019.81 1019.40 1018.97 1018.53 1018.08 1017.63 1017.17 1016.70 1016.24 1015.77 1015.31
1016.45 1017.11 1017.77 1018.39 1018.96 1019.47 1019.91 1020.29 1020.61 1020.87 1021.08 1021.26 1021.40 1021.53 1021.62 1021.69 1021.73 1021.72 1021.68 1021.59 1021.45 1021.25 1021.01 1020.73 1020.40 1020.05 1019.67 1019.27 1018.85 1018.42 1017.97 1017.52 1017.06 1016.59 1016.11 1015.63 1015.15 1014.67
1016.04 1016.76 1017.46 1018.12 1018.72 1019.26 1019.72 1020.11 1020.44 1020.71 1020.94 1021.12 1021.27 1021.39 1021.49 1021.54 1021.56 1021.53 1021.45 1021.31 1021.12 1020.87 1020.58 1020.25 1019.89 1019.51 1019.11 1018.70 1018.28 1017.85 1017.41 1016.96 1016.49 1016.01 1015.52 1015.02 1014.52 1014.03
1015.65 1016.41 1017.15 1017.84 1018.47 1019.03 1019.52 1019.94 1020.28 1020.58 1020.82 1021.02 1021.18 1021.30 1021.39 1021.43 1021.43 1021.36 1021.24 1021.05 1020.81 1020.51 1020.17 1019.80 1019.40 1018.99 1018.58 1018.16 1017.74 1017.31 1016.88 1016.43 1015.96 1015.47 1014.96 1014.44 1013.91 1013.39
1015.30 1016.10 1016.86 1017.58 1018.23 1018.81 1019.31 1019.75 1020.11 1020.42 1020.68 1020.90 1021.07 1021.21 1021.29 1021.32 1021.29 1021.20 1021.03 1020.81 1020.52 1020.18 1019.79 1019.39 1018.97 1018.54 1018.12 1017.70 1017.28 1016.86 1016.43 1015.97 1015.50 1014.99 1014.46 1013.91 1013.34 1012.78
1015.02 1015.84 1016.62 1017.34 1018.00 1018.58 1019.09 1019.53 1019.91 1020.23 1020.51 1020.74 1020.92 1021.06 1021.14 1021.16 1021.12 1021.00 1020.82 1020.56 1020.24 1019.87 1019.47 1019.05 1018.62 1018.19 1017.77 1017.35 1016.94 1016.52 1016.09 1015.63 1015.13 1014.60 1014.04 1013.45 1012.84 1012.23
1014.83 1015.64 1016.41 1017.12 1017.77 1018.34 1018.84 1019.28 1019.66 1019.99 1020.26 1020.50 1020.69 1020.83 1020.91 1020.93 1020.88 1020.75 1020.56 1020.29 1019.97 1019.60 1019.20 1018.79 1018.37 1017.95 1017.54 1017.14 1016.73 1016.31 1015.87 1015.39 1014.88 1014.32 1013.72 1013.09 1012.43 1011.78
1014.70 1015.50 1016.24 1016.93 1017.54 1018.09 1018.57 1018.98 1019.35 1019.66 1019.94 1020.17 1020.35 1020.49 1020.57 1020.59 1020.55 1020.43 1020.24 1019.99 1019.69 1019.34 1018.97 1018.58 1018.19 1017.80 1017.41 1017.02 1016.62 1016.20 1015.75 1015.26 1014.72 1014.13 1013.50 1012.83 1012.13 1011.44
1014.63 1015.39 1016.09 1016.73 1017.31 1017.81 1018.25 1018.64 1018.98 1019.27 1019.52 1019.74 1019.92 1020.05 1020.13 1020.15 1020.11 1020.01 1019.85 1019.63 1019.36 1019.06 1018.73 1018.38 1018.03 1017.68 1017.32 1016.95 1016.56 1016.14 1015.68 1015.18 1014.62 1014.01 1013.35 1012.65 1011.93 1011.21
Thickness
5544 5543 5542 5541 5540 5538 5536 5534 5529 5524 5521 5520 5520 5520 5518 5515 5513 5511 5509 5507 5505 5503 5501 5499 5497 5495 5494 5492 5490 5488 5486 5485 5483 5482 5481 5480 5479 5478
5534 5532 5531 5530 5528 5526 5525 5523 5521 5517 5512 5510 5509 5508 5506 5503 5501 5498 5497 5495 5493 5491 5489 5487 5485 5483 5481 5479 5477 5474 5472 5471 5469 5468 5467 5465 5464 5463
5524 5522 5520 5519 5517 5515 5513 5511 5508 5506 5502 5499 5497 5496 5493 5491 5488 5486 5485 5483 5480 5478 5476 5474 5472 5470 5467 5465 5463 5460 5458 5456 5454 5453 5451 5450 5449 5448
5514 5512 5510 5508 5506 5504 5501 5500 5498 5495 5491 5487 5484 5482 5480 5478 5476 5474 5472 5470 5468 5466 5463 5461 5459 5457 5454 5451 5449 5446 5443 5441 5439 5438 5436 5435 5433 5431
5504 5502 5501 5498 5495 5493 5491 5489 5486 5484 5480 5476 5473 5470 5467 5465 5463 5461 5459 5457 5455 5452 5450 5448 5445 5443 5440 5437 5434 5431 5429 5426 5424 5422 5420 5419 5417 5414
5494 5492 5491 5488 5486 5483 5480 5477 5474 5470 5467 5464 5461 5457 5454 5452 5450 5448 5446 5444 5441 5439 5436 5433 5431 5428 5425 5423 5420 5417 5414 5412 5409 5407 5404 5402 5400 5398
5482 5481 5480 5478 5476 5474 5471 5467 5463 5459 5455 5451 5448 5445 5442 5439 5436 5434 5432 5430 5428 5425 5423 5420 5417 5415 5412 5409 5406 5403 5400 5397 5394 5391 5388 5386 5383 5381
5471 5469 5468 5466 5465 5463 5461 5458 5453 5449 5444 5441 5437 5434 5431 5428 5425 5422 5418 5416 5415 5413 5409 5408 5404 5402 5399 5396 5393 5389 5386 5382 5379 5376 5373 5370 5368 5366
5460 5458 5456 5455 5453 5450 5448 5446 5442 5439 5437 5433 5428 5425 5421 5418 5413 5409 5406 5404 5403 5399 5394 5396 5392 5390 5387 5383 5379 5375 5372 5368 5364 5361 5358 5355 5353 5351
5450 5447 5445 5442 5440 5438 5435 5432 5429 5427 5425 5422 5419 5415 5411 5407 5403 5400 5396 5393 5391 5386 5381 5380 5379 5376 5375 5370 5365 5361 5357 5354 5351 5348 5345 5342 5340 5338
5438 5436 5433 5431 5429 5427 5423 5420 5417 5414 5412 5410 5407 5404 5400 5396 5391 5386 5382 5378 5378 5375 5368 5364 5364 5362 5361 5358 5353 5348 5344 5340 5337 5334 5332 5330 5327 5325
5426 5424 5422 5420 5417 5414 5411 5408 5405 5403 5400 5397 5394 5391 5387 5384 5379 5375 5370 5365 5362 5361 5358 5351 5348 5344 5346 5347 5342 5336 5332 5328 5325 5323 5320 5318 5315 5312
5414 5411 5409 5408 5405 5403 5400 5398 5396 5392 5388 5385 5382 5378 5375 5371 5367 5363 5359 5354 5350 5348 5344 5338 5334 5329 5326 5329 5330 5325 5320 5317 5314 5312 5309 5306 5303 5301
5403 5401 5398 5396 5394 5392 5389 5387 5384 5380 5376 5372 5368 5366 5362 5358 5355 5351 5347 5343 5339 5336 5332 5326 5321 5317 5314 5313 5315 5314 5310 5306 5303 5301 5298 5296 5293 5291
5391 5389 5387 5385 5382 5380 5377 5374 5371 5367 5363 5359 5356 5353 5350 5347 5342 5338 5334 5331 5327 5324 5319 5315 5310 5307 5303 5301 5302 5300 5298 5296 5293 5290 5288 5285 5283 5282
5379 5377 5375 5372 5370 5367 5365 5361 5358 5355 5351 5348 5344 5341 5337 5333 5330 5325 5321 5318 5314 5312 5308 5303 5300 5296 5293 5291 5289 5289 5286 5284 5284 5280 5278 5277 5275 5273
5365 5363 5360 5357 5355 5353 5350 5347 5345 5342 5339 5335 5331 5328 5325 5321 5317 5312 5308 5304 5301 5299 5297 5293 5289 5286 5284 5282 5281 5280 5278 5276 5274 5271 5269 5269 5269 5267
5353 5350 5347 5344 5342 5340 5337 5335 5332 5329 5326 5323 5319 5315 5312 5308 5304 5300 5296 5292 5290 5288 5286 5283 5279 5276 5275 5276 5274 5272 5270 5268 5266 5264 5261 5261 5263 5262
5340 5338 5335 5333 5330 5328 5325 5322 5320 5317 5314 5310 5307 5303 5299 5296 5292 5289 5286 5283 5280 5279 5276 5273 5269 5266 5265 5267 5269 5266 5262 5260 5258 5256 5255 5254 5255 5257
5328 5325 5323 5320 5318 5315 5313 5310 5308 5305 5302 5299 5295 5292 5288 5285 5282 5279 5276 5274 5272 5270 5268 5265 5262 5260 5259 5259 5259 5259 5256 5252 5250 5249 5249 5249 5250 5251
5315 5312 5310 5308 5306 5304 5301 5299 5296 5294 5291 5287 5285 5282 5279 5276 5273 5271 5268 5267 5264 5262 5260 5259 5257 5255 5253 5251 5250 5251 5250 5248 5246 5244 5243 5243 5244 5245
5302 5301 5299 5297 5295 5293 5290 5288 5285 5283 5280 5277 5275 5273 5271 5268 5266 5263 5261 5258 5256 5254 5253 5252 5251 5249 5246 5245 5245 5244 5243 5244 5243 5241 5240 5239 5237 5237
5290 5289 5288 5286 5284 5282 5280 5277 5275 5273 5271 5269 5267 5265 5263 5260 5258 5256 5254 5251 5249 5247 5246 5245 5244 5242 5241 5239 5238 5237 5236 5236 5237 5237 5238 5237 5237 5237